[[{"header":{"parameterUnit":"m.s-1","parameterCategory":1,"la1":30.2991,"la2":30.254,"lo1":-89.0895,"lo2":-89.0444,"dy":0.0017,"dx":0.0017,"nx":28,"ny":28,"refTime":"2025-06-02T09:00:00:Z","depth":0,"parameterNumber":2,"parameterNumberName":"U-component_of_WINDS"},"data":[0,0,0,0,0,0,0,0,0,0,0,0,0,0,0,0,0,0,0,0,0,0,0,0,0,0,0,0,0,0,0,0,0,0,0,0,0,0,0,0,0,0,0,0,0,0,0,0,0,0,0,0,0,0,0,0,0,0,-0.3126,-0.3127,0,-0.3144,-0.3144,-0.3144,-0.3139,-0.3139,-0.3139,-0.3138,-0.3159,-0.316,-0.3161,0,0,0,0,0,0,0,0,0,0,0,0,0,-0.3092,-0.3092,-0.3126,-0.3127,-0.3127,-0.3144,-0.3144,-0.3144,-0.314,-0.3139,-0.3139,-0.3138,-0.3159,-0.316,-0.3161,0,0,0,0,0,0,0,0,0,0,0,0,0,-0.3108,-0.3093,-0.3126,-0.3126,-0.3127,-0.3144,-0.3144,-0.3144,-0.314,-0.3139,-0.3139,-0.3138,-0.3159,-0.316,-0.3161,-0.318,0,0,-0.3165,-0.3166,0,0,0,0,0,0,0,0,-0.3107,-0.3109,-0.3126,-0.3126,-0.3127,-0.3139,-0.3139,-0.3157,-0.314,-0.3135,-0.3138,-0.3138,-0.3153,-0.3155,-0.3159,-0.3181,-0.3182,-0.3165,-0.3166,-0.3167,-0.3167,0,0,0,0,0,0,0,-0.3106,-0.3108,-0.3133,-0.3127,-0.3127,-0.3127,-0.3128,-0.3143,-0.3147,-0.3135,-0.3135,-0.3137,-0.3153,-0.3158,-0.316,-0.3182,-0.3165,-0.3167,-0.3167,-0.3168,-0.3222,-0.3222,0,0,0,0,0,0,-0.3104,-0.3107,-0.3133,-0.3134,-0.3115,-0.3128,-0.3129,-0.3136,-0.3147,-0.3148,-0.3137,-0.3137,-0.3156,-0.3158,-0.3161,-0.3185,-0.3167,-0.3168,-0.3169,-0.3221,-0.3222,-0.3223,0,0,0,0,0,0,-0.3103,-0.3106,-0.3132,-0.3121,-0.3124,-0.3129,-0.3136,-0.3136,-0.3141,-0.3148,-0.3149,-0.3141,-0.3156,-0.3159,-0.3175,-0.3185,-0.3169,-0.317,-0.322,-0.3221,-0.3222,-0.3232,0,0,0,0,0,0,-0.3102,-0.3106,-0.3113,-0.3121,-0.3124,-0.3146,-0.3136,-0.3137,-0.3143,-0.3142,-0.3152,-0.3154,-0.3156,-0.3173,-0.3177,-0.3187,-0.3171,-0.322,-0.3221,-0.3222,-0.3231,-0.3233,-0.3235,0,0,0,0,0,-0.3101,-0.3116,-0.3113,-0.3116,-0.3133,-0.3147,-0.3149,-0.315,-0.3144,-0.3151,-0.3156,-0.3153,-0.3183,-0.3175,-0.3179,-0.3189,-0.3219,-0.3221,-0.3222,-0.323,-0.3233,-0.3235,0,0,0,0,0,0,-0.311,-0.3117,-0.3114,-0.3131,-0.3138,-0.3146,-0.3155,-0.3153,-0.3162,-0.3161,-0.3163,-0.3166,-0.3183,-0.3188,-0.3179,-0.3209,-0.32,-0.3203,-0.3205,-0.3208,-0.321,-0.3209,-0.3172,0,0,0,0,0,-0.3113,-0.3123,-0.3129,-0.3143,-0.3147,-0.315,-0.3156,-0.3156,-0.3164,-0.3167,-0.3173,-0.3182,-0.3193,-0.3201,-0.3211,-0.3231,-0.3234,-0.324,-0.3242,-0.3244,-0.3247,-0.3258,-0.3262,-0.3227,-0.3227,-0.3227,0,0,-0.3122,-0.3126,-0.3133,-0.3145,-0.3151,-0.3162,-0.3153,-0.3165,-0.3173,-0.317,-0.3186,-0.319,-0.32,-0.3218,-0.3227,-0.3223,-0.3256,-0.3246,-0.3247,-0.3249,-0.326,-0.3264,-0.3266,-0.3228,-0.3228,-0.3228,0,0,-0.3142,-0.3146,-0.3159,-0.3165,-0.3173,-0.3175,-0.3178,-0.3185,-0.3188,-0.3204,-0.3202,-0.3212,-0.3231,-0.3238,-0.3245,-0.3267,-0.3266,-0.3271,-0.3283,-0.3294,-0.3297,-0.33,-0.3309,-0.3312,-0.3273,-0.3273,-0.3273,0,-0.3152,-0.3168,-0.3167,-0.3179,-0.3185,-0.318,-0.3194,-0.32,-0.3211,-0.3216,-0.3211,-0.3235,-0.3241,-0.3262,-0.3268,-0.3272,-0.3277,-0.3271,-0.3296,-0.3299,-0.3301,-0.331,-0.3314,-0.3274,-0.3274,-0.3273,-0.3273,0,-0.3179,-0.319,-0.32,-0.321,-0.3217,-0.323,-0.3232,-0.3239,-0.3238,-0.3241,-0.3258,-0.3265,-0.3278,-0.3282,-0.3282,-0.3303,-0.33,-0.3296,-0.3288,-0.3305,-0.3314,-0.3317,-0.3275,-0.3274,-0.3274,-0.3274,0,0,-0.3208,-0.3216,-0.322,-0.3225,-0.3233,-0.3242,-0.3255,-0.3266,-0.3273,-0.3281,-0.3293,-0.3309,-0.3304,-0.3311,-0.3312,-0.3322,-0.3341,-0.3316,-0.3316,-0.3322,-0.3366,-0.3371,-0.3375,-0.3339,-0.334,-0.334,-0.3366,0,-0.323,-0.3252,-0.3251,-0.3272,-0.3283,-0.3279,-0.329,-0.3297,-0.33,-0.331,-0.3313,-0.3325,-0.3318,-0.3322,-0.3332,-0.3337,-0.335,-0.3334,-0.3352,-0.3353,-0.3351,-0.3379,-0.3384,-0.3408,-0.3369,-0.337,-0.337,0,-0.326,-0.3268,-0.3289,-0.3296,-0.3301,-0.3311,-0.3321,-0.333,-0.3338,-0.334,-0.3347,-0.3346,-0.336,-0.335,-0.3371,-0.336,-0.3367,-0.337,-0.3371,-0.3375,-0.3364,-0.3385,-0.3415,-0.342,-0.3375,-0.3375,-0.3374,0,-0.328,-0.3296,-0.3311,-0.3315,-0.3323,-0.333,-0.3334,-0.3341,-0.3348,-0.3358,-0.3362,-0.3373,-0.338,-0.3389,-0.3391,-0.3383,-0.3412,-0.3402,-0.3415,-0.3415,-0.3423,-0.3423,-0.3457,-0.3424,-0.3424,-0.3424,-0.3424,0,-0.3306,-0.332,-0.332,-0.333,-0.3345,-0.3345,-0.336,-0.3364,-0.337,-0.3381,-0.3378,-0.3388,-0.339,-0.3401,-0.3403,-0.342,-0.3423,-0.3426,-0.3426,-0.3427,-0.3427,-0.3433,-0.3432,-0.3425,-0.3425,-0.3425,-0.3425,0,-0.3332,-0.3332,-0.3349,-0.3355,-0.3356,-0.3368,-0.3373,-0.3383,-0.3385,-0.3399,-0.3402,-0.3406,-0.3419,-0.3422,-0.3437,-0.3439,-0.346,-0.3458,-0.3457,-0.3458,-0.3471,-0.347,-0.3512,-0.3518,-0.348,-0.348,-0.348,0,-0.3349,-0.336,-0.3366,-0.3373,-0.3377,-0.3388,-0.3394,-0.3394,-0.3401,-0.3411,-0.342,-0.3432,-0.3442,-0.3463,-0.3468,-0.3481,-0.348,-0.3494,-0.3482,-0.3483,-0.3482,-0.3482,-0.3484,-0.3497,-0.3497,-0.3497,-0.3497,0,-0.3381,-0.3381,-0.339,-0.34,-0.3407,-0.3415,-0.3422,-0.3428,-0.3429,-0.3437,-0.345,-0.3458,-0.3473,-0.3486,-0.3498,-0.3503,-0.3501,-0.3501,-0.3505,-0.3507,-0.3506,-0.3508,-0.3465,-0.35,-0.35,-0.35,-0.35,-0.35,-0.3405,-0.3414,-0.342,-0.3431,-0.3436,-0.3443,-0.3452,-0.3455,-0.3465,-0.3477,-0.3476,-0.3491,-0.3499,-0.3514,-0.352,-0.3532,-0.3528,-0.3534,-0.3535,-0.3537,-0.3539,-0.3502,-0.3534,-0.3534,-0.3534,-0.3534,-0.3534,0,-0.3438,-0.3441,-0.3451,-0.3461,-0.3469,-0.3464,-0.3472,-0.348,-0.3492,-0.3499,-0.3509,-0.3524,-0.3537,-0.3542,-0.3555,-0.3563,-0.3563,-0.3567,-0.3567,-0.3569,-0.3541,-0.3537,-0.3567,-0.3567,-0.3567,-0.3567,-0.3567,-0.3567,-0.3456,-0.3472,-0.3472,-0.3491,-0.3494,-0.3508,-0.3513,-0.3519,-0.3525,-0.3542,-0.3552,-0.3555,-0.3561,-0.3574,-0.3586,-0.3587,-0.3593,-0.3598,-0.3599,-0.3574,-0.357,-0.3567,-0.3564,-0.3599,-0.3599,-0.3626,-0.3626,-0.3626]},{"header":{"parameterUnit":"m.s-1","parameterCategory":1,"la1":30.2991,"la2":30.254,"lo1":-89.0895,"lo2":-89.0444,"dy":0.0017,"dx":0.0017,"nx":28,"ny":28,"refTime":"2025-06-02T09:00:00:Z","depth":0,"parameterNumber":3,"parameterNumberName":"V-component_of_WINDS"},"data":[0,0,0,0,0,0,0,0,0,0,0,0,0,0,0,0,0,0,0,0,0,0,0,0,0,0,0,0,0,0,0,0,0,0,0,0,0,0,0,0,0,0,0,0,0,0,0,0,0,0,0,0,0,0,0,0,0,0,-0.6392,-0.6391,0,-0.631,-0.6309,-0.6308,-0.6295,-0.6296,-0.6297,-0.6297,-0.6212,-0.6209,-0.6206,0,0,0,0,0,0,0,0,0,0,0,0,0,-0.6535,-0.6533,-0.6392,-0.6391,-0.639,-0.631,-0.6309,-0.6308,-0.6295,-0.6296,-0.6297,-0.6298,-0.6213,-0.6209,-0.6206,0,0,0,0,0,0,0,0,0,0,0,0,0,-0.6465,-0.6532,-0.6392,-0.6374,-0.6371,-0.631,-0.6309,-0.6308,-0.6295,-0.6296,-0.6297,-0.6298,-0.6214,-0.621,-0.6205,-0.6156,0,0,-0.6192,-0.619,0,0,0,0,0,0,0,0,-0.6469,-0.646,-0.6378,-0.6375,-0.6372,-0.6314,-0.6328,-0.6257,-0.6295,-0.6324,-0.6298,-0.6299,-0.6245,-0.6238,-0.622,-0.6152,-0.6148,-0.6191,-0.6189,-0.6187,-0.6185,0,0,0,0,0,0,0,-0.6474,-0.6463,-0.6359,-0.6376,-0.6373,-0.6369,-0.6361,-0.6315,-0.6279,-0.6322,-0.632,-0.6311,-0.6244,-0.6224,-0.6218,-0.6147,-0.6191,-0.6187,-0.6185,-0.6183,-0.6034,-0.6032,0,0,0,0,0,0,-0.6482,-0.6467,-0.6362,-0.6357,-0.6424,-0.6366,-0.6356,-0.6332,-0.628,-0.6273,-0.631,-0.6311,-0.6231,-0.6223,-0.6215,-0.6153,-0.6187,-0.6183,-0.618,-0.6035,-0.6033,-0.6032,0,0,0,0,0,0,-0.6486,-0.6473,-0.6365,-0.6412,-0.6398,-0.6362,-0.6335,-0.6329,-0.631,-0.6271,-0.6265,-0.6297,-0.6232,-0.6221,-0.6171,-0.615,-0.6181,-0.6177,-0.6037,-0.6035,-0.6033,-0.6029,0,0,0,0,0,0,-0.649,-0.6474,-0.6455,-0.6412,-0.6395,-0.6323,-0.6334,-0.6327,-0.6303,-0.6303,-0.6257,-0.6251,-0.6232,-0.6177,-0.6166,-0.6144,-0.6173,-0.6038,-0.6036,-0.6033,-0.6031,-0.6027,-0.6024,0,0,0,0,0,-0.6495,-0.6457,-0.6455,-0.6442,-0.6371,-0.6322,-0.6312,-0.6292,-0.6301,-0.6282,-0.6257,-0.6252,-0.6154,-0.6172,-0.616,-0.6136,-0.6039,-0.6036,-0.6034,-0.6033,-0.6028,-0.6024,0,0,0,0,0,0,-0.6499,-0.6451,-0.6448,-0.6395,-0.6363,-0.632,-0.6294,-0.6288,-0.6252,-0.6253,-0.6229,-0.6219,-0.617,-0.6148,-0.6169,-0.6085,-0.6098,-0.6092,-0.6101,-0.6097,-0.6093,-0.6099,-0.6169,0,0,0,0,0,-0.6494,-0.6458,-0.6418,-0.6376,-0.636,-0.633,-0.6307,-0.6295,-0.626,-0.6246,-0.6217,-0.6183,-0.6145,-0.612,-0.6082,-0.6029,-0.6018,-0.6006,-0.6003,-0.6,-0.5995,-0.5965,-0.5959,-0.6022,-0.6022,-0.6022,0,0,-0.6483,-0.6452,-0.6431,-0.6376,-0.6349,-0.6312,-0.6318,-0.6279,-0.6251,-0.624,-0.619,-0.6168,-0.6128,-0.6076,-0.6051,-0.6056,-0.5976,-0.5997,-0.5995,-0.5991,-0.5961,-0.5955,-0.595,-0.602,-0.6021,-0.6021,0,0,-0.6443,-0.6417,-0.6378,-0.6352,-0.6312,-0.6292,-0.6283,-0.6241,-0.6226,-0.6176,-0.6167,-0.6134,-0.6068,-0.604,-0.6017,-0.5968,-0.5962,-0.5956,-0.5938,-0.5909,-0.5904,-0.5899,-0.5881,-0.5874,-0.5952,-0.5952,-0.5952,0,-0.6434,-0.6378,-0.6359,-0.632,-0.6295,-0.6285,-0.6245,-0.622,-0.617,-0.6153,-0.616,-0.6077,-0.605,-0.599,-0.5978,-0.5961,-0.5949,-0.5961,-0.5906,-0.5901,-0.5897,-0.5879,-0.5872,-0.5951,-0.5951,-0.5951,-0.5951,0,-0.6368,-0.633,-0.6303,-0.6255,-0.6228,-0.6189,-0.6163,-0.6138,-0.6129,-0.6108,-0.6058,-0.6025,-0.598,-0.5965,-0.5955,-0.5904,-0.5909,-0.5911,-0.5922,-0.589,-0.5873,-0.5866,-0.5951,-0.5951,-0.5951,-0.5951,0,0,-0.6327,-0.627,-0.626,-0.6239,-0.6194,-0.6164,-0.6124,-0.6081,-0.606,-0.6026,-0.5991,-0.5936,-0.5938,-0.5913,-0.5899,-0.5874,-0.5836,-0.5879,-0.5878,-0.5871,-0.5777,-0.5774,-0.5767,-0.5832,-0.5831,-0.583,-0.578,0,-0.6281,-0.621,-0.6192,-0.6132,-0.6096,-0.6086,-0.6051,-0.602,-0.6,-0.5966,-0.5945,-0.5906,-0.5912,-0.5896,-0.5871,-0.5846,-0.5816,-0.5849,-0.5799,-0.5798,-0.5808,-0.5758,-0.5755,-0.5709,-0.5773,-0.5772,-0.5771,0,-0.6218,-0.6183,-0.6119,-0.6079,-0.6063,-0.6033,-0.5992,-0.596,-0.5924,-0.5912,-0.5883,-0.5873,-0.5831,-0.5846,-0.5787,-0.581,-0.5788,-0.5773,-0.5771,-0.5764,-0.5781,-0.5749,-0.5694,-0.5687,-0.576,-0.5761,-0.5762,0,-0.6193,-0.613,-0.6083,-0.6065,-0.6018,-0.5997,-0.5976,-0.5941,-0.5917,-0.5881,-0.5865,-0.5825,-0.5803,-0.5772,-0.5751,-0.5764,-0.5693,-0.5707,-0.5681,-0.5681,-0.5665,-0.5666,-0.5605,-0.5654,-0.5654,-0.5654,-0.5654,0,-0.6142,-0.6103,-0.6072,-0.6043,-0.5999,-0.5979,-0.5935,-0.5914,-0.5884,-0.585,-0.584,-0.5809,-0.5783,-0.5748,-0.5732,-0.5685,-0.5675,-0.5664,-0.5659,-0.5664,-0.5665,-0.5648,-0.565,-0.5652,-0.5653,-0.5653,-0.5653,0,-0.6106,-0.6084,-0.6032,-0.5992,-0.5981,-0.595,-0.5916,-0.5887,-0.5868,-0.5826,-0.5815,-0.5784,-0.5743,-0.5719,-0.5667,-0.5656,-0.5603,-0.5601,-0.5615,-0.5613,-0.5588,-0.5591,-0.5513,-0.5502,-0.5559,-0.5559,-0.5558,0,-0.6075,-0.6045,-0.6002,-0.5979,-0.5958,-0.5921,-0.5897,-0.5876,-0.585,-0.5808,-0.5784,-0.5743,-0.5708,-0.5642,-0.5615,-0.5575,-0.5571,-0.5547,-0.5565,-0.557,-0.5569,-0.5571,-0.5567,-0.5543,-0.5542,-0.5542,-0.5542,0,-0.6021,-0.6012,-0.5977,-0.5938,-0.5908,-0.5877,-0.5845,-0.5827,-0.5801,-0.5773,-0.573,-0.5704,-0.5651,-0.5609,-0.5567,-0.5545,-0.5538,-0.5537,-0.5528,-0.5532,-0.5541,-0.5534,-0.5605,-0.5538,-0.5538,-0.5539,-0.5539,-0.5539,-0.5985,-0.5958,-0.5924,-0.5885,-0.5859,-0.583,-0.5801,-0.5779,-0.5743,-0.5699,-0.5689,-0.5645,-0.561,-0.5553,-0.553,-0.5495,-0.5499,-0.5487,-0.5484,-0.5481,-0.548,-0.5548,-0.5487,-0.5487,-0.5487,-0.5487,-0.5487,0,-0.593,-0.5908,-0.5873,-0.5829,-0.5798,-0.5797,-0.5762,-0.5736,-0.5697,-0.5666,-0.5632,-0.5583,-0.5543,-0.5513,-0.5472,-0.545,-0.5446,-0.5439,-0.544,-0.5435,-0.5479,-0.5489,-0.5443,-0.5443,-0.5443,-0.5443,-0.5443,-0.5443,-0.5898,-0.5851,-0.5838,-0.5778,-0.5756,-0.5713,-0.5693,-0.5666,-0.5641,-0.5587,-0.5554,-0.5535,-0.5504,-0.5461,-0.5424,-0.5416,-0.5401,-0.5395,-0.5386,-0.5427,-0.5432,-0.5436,-0.5446,-0.5392,-0.5392,-0.5345,-0.5345,-0.5344]}]]